Tracking 22455 objects as of 9-Mar-2021
HD Live streaming from Space Station
objects crossing your sky now

CZ-4 DEB

Track CZ-4 DEB now!
10-day predictions


NORAD ID: 37623
Int'l Code: 1990-081DK
Perigee: 829.6 km
Apogee: 860.6 km
Inclination: 98.6 °
Period: 101.7 minutes
Semi major axis: 7216 km
RCS: 0.0158 m2 (small)
Launch date: September 3, 1990
Source: People's Republic of China (PRC)
Launch site: Taiyaun Space Center, China (TSC)

Note: This is SATELLITE DEBRIS
aabbcc
Your satellite tracking list
Your tracking list is empty




NASA's NSSDC Master Catalog

Two Line Element Set (TLE):
1 37623U 90081DK  21063.23411313  .00000113  00000-0  78568-4 0  9992
2 37623  98.6194  72.5041 0021429 291.6066  68.2826 14.16281121393641
Source of the keplerian elements: AFSPC